Regional Weather Roundup
Issued by NWS

Home | Current Version | Previous Version | Text Only | Print | Product List | Glossary On
Versions: 1 2 3 4 5 6 7 8 9 10 11 12 13 14 15 16 17 18 19 20 21 22 23 24 25 26 27 28 29 30 31 32 33 34 35 36 37 38 39 40 41 42 43 44 45 46 47 48 49 50
000
ASCA42 TJSJ 201411
RWRPR
PUERTO RICO/U.S. VIRGIN ISLANDS HOURLY WEATHER ROUNDUP
NATIONAL WEATHER SERVICE SAN JUAN PR
1000 AM AST SAT DEC 20 2014

PRZ001-004-201500-
PUERTO RICO

CITY           SKY/WX    TMP DP  RH WIND       PRES   REMARKS
SAN JUAN LMM   MOSUNNY   81  72  74 E10       30.06R
AGUADILLA      SUNNY     81  68  65 E15G22    30.07R
CEIBA          SUNNY     82  72  69 E8        30.09R
$$

PRZ006-007-201500-
U.S. VIRGIN ISLANDS

CITY           SKY/WX    TMP DP  RH WIND       PRES   REMARKS
CHARLOTTE AMA  MOSUNNY   82  68  61 E13       30.05
CHRISTIANSTED  MOSUNNY   82  70  65 E15       30.05
$$

HOURLY WEATHER ROUNDUP FOR THE NEWS MEDIA

CITY           SKY/WX    TMP DP  RH WIND       PRES   REMARKS
MIAMI          PTSUNNY   72  63  73 SE3       30.10R
ORLANDO        SUNNY     62  57  83 CALM      30.12R
NEW YORK       CLOUDY    32  19  58 N9        30.30R WCI  24
NEWARK         CLOUDY    32  21  64 N7        30.29R WCI  26
CHICAGO        CLOUDY    30  24  78 CALM      30.27S
HARTFORD       CLOUDY    32  25  75 N7        30.26R WCI  26
BOSTON         MOSUNNY   30  21  69 NW9       30.29R WCI  22
DALLAS         DRIZZLE   46  42  86 N6        30.25R FOG
PHILADELPHIA   CLOUDY    33  21  61 NW6       30.32R WCI  28


USA.gov is the U.S. government's official web portal to all federal, state and local government web resources and services.